Location: Wildlife_Club
(35.6000°N, 81.4330°W)
Time: 00:04:44
(UTC-04:00)

Iridium 56 - Visible Passes

Search period start: 27 April 2015 00:00
Search period end: 07 May 2015 00:00
Orbit: 776 x 779 km, 86.4° (Epoch: 26 April)

Date Brightness Start Highest point End Pass type
(mag) Time Alt. Az. Time Alt. Az. Time Alt. Az.
27 Apr 7.2 20:31:54 10° NNW 20:36:44 38° W 20:41:29 10° SSW visible
29 Apr 8.6 21:07:23 10° NW 21:10:03 14° W 21:12:25 10° WSW visible
30 Apr 8.1 20:32:25 10° NNW 20:36:45 26° W 20:40:57 10° SW visible
